User: anonymous   Login
Location: Unspecified
(0.0000°N, 0.0000°E)
Time: 02:58:17
(UTC+00:00)
Language:

Ajisai (EGP) Rocket - Orbit

View from above orbital plane
View from above orbital plane
View from above satellite
View from above satellite

Ground track
Ground track

The orbit data is extracted from the following two-line orbital elements,

1 16910U 86061C   18171.52924666 -.00000084 +00000-0 +78726-4 0  9993
2 16910 050.0017 194.2885 0072142 203.7580 316.9515 12.32576872434486
Epoch (UTC): 20 June 2018 12:42:06
Eccentricity: 0.0072142
inclination: 50.0017°
perigee height: 1481 km
apogee height: 1595 km
right ascension of ascending node: 194.2885°
argument of perigee: 203.7580°
revolutions per day: 12.32576872
mean anomaly at epoch: 316.9515°
orbit number at epoch: 43448

The dashed part of the orbit path shows where the satellite is in the earth's shadow,  

DLR